Total_Precipitation_Accumulation
0.00 0.00 0.00 0.00 0.00 0.03 0.15 0.24 0.31 0.04 0.07 0.08 0.05 0.10 0.06 0.01 0.00 0.00 0.00 0.00 0.00 0.00 0.00 0.00 0.00 0.00 0.00 0.00 0.00 0.00 0.00 0.00 0.01 0.00 0.00 0.00 0.00 0.00 0.00 0.00 0.00 0.00 0.00 0.00
0.00 0.00 0.00 0.00 0.01 0.05 0.10 0.30 0.25 0.13 0.19 0.08 0.03 0.01 0.01 0.02 0.00 0.00 0.00 0.01 0.01 0.00 0.01 0.04 0.00 0.00 0.00 0.00 0.00 0.00 0.00 0.01 0.04 0.03 0.01 0.00 0.00 0.00 0.00 0.00 0.00 0.02 0.01 0.00
0.00 0.01 0.01 0.00 0.01 0.08 0.20 0.19 0.23 0.19 0.32 0.28 0.04 0.00 0.01 0.03 0.01 0.01 0.03 0.03 0.03 0.03 0.02 0.03 0.02 0.01 0.01 0.00 0.00 0.00 0.00 0.02 0.03 0.02 0.00 0.00 0.00 0.00 0.01 0.02 0.05 0.02 0.00 0.00
0.01 0.02 0.02 0.01 0.02 0.09 0.20 0.47 0.30 0.08 0.14 0.23 0.14 0.03 0.01 0.00 0.00 0.01 0.03 0.07 0.04 0.06 0.12 0.06 0.03 0.06 0.05 0.02 0.01 0.01 0.03 0.10 0.02 0.01 0.00 0.00 0.01 0.00 0.00 0.00 0.01 0.00 0.01 0.00
0.03 0.05 0.05 0.08 0.08 0.16 0.31 0.38 0.32 0.21 0.05 0.01 0.07 0.12 0.09 0.02 0.00 0.01 0.02 0.06 0.02 0.03 0.05 0.11 0.15 0.18 0.22 0.17 0.11 0.07 0.11 0.19 0.07 0.05 0.01 0.00 0.01 0.01 0.00 0.00 0.00 0.00 0.00 0.00
0.02 0.08 0.15 0.10 0.16 0.31 0.48 0.38 0.23 0.18 0.16 0.05 0.04 0.06 0.04 0.02 0.01 0.01 0.01 0.03 0.05 0.06 0.03 0.05 0.03 0.06 0.10 0.14 0.12 0.12 0.13 0.12 0.16 0.13 0.01 0.04 0.11 0.02 0.00 0.00 0.00 0.00 0.00 0.00
0.01 0.03 0.10 0.18 0.16 0.33 0.37 0.28 0.19 0.24 0.23 0.12 0.04 0.00 0.00 0.00 0.01 0.02 0.03 0.07 0.06 0.03 0.03 0.03 0.03 0.05 0.05 0.05 0.05 0.07 0.07 0.04 0.14 0.13 0.05 0.22 0.06 0.00 0.00 0.00 0.00 0.00 0.00 0.00
0.03 0.03 0.06 0.11 0.20 0.26 0.32 0.21 0.37 0.37 0.20 0.06 0.02 0.01 0.01 0.02 0.02 0.01 0.01 0.02 0.02 0.05 0.05 0.05 0.03 0.02 0.02 0.04 0.05 0.03 0.04 0.06 0.08 0.11 0.09 0.04 0.00 0.00 0.00 0.00 0.00 0.00 0.00 0.00
0.06 0.05 0.06 0.05 0.06 0.19 0.30 0.22 0.17 0.39 0.40 0.16 0.05 0.02 0.02 0.02 0.02 0.01 0.00 0.01 0.04 0.06 0.08 0.09 0.06 0.01 0.00 0.00 0.00 0.01 0.04 0.09 0.15 0.16 0.10 0.03 0.00 0.00 0.00 0.00 0.00 0.00 0.00 0.00
0.02 0.03 0.06 0.07 0.05 0.08 0.15 0.16 0.11 0.13 0.20 0.07 0.08 0.10 0.05 0.04 0.05 0.03 0.01 0.01 0.03 0.09 0.14 0.11 0.05 0.01 0.00 0.00 0.00 0.01 0.05 0.13 0.22 0.12 0.07 0.01 0.00 0.00 0.00 0.00 0.00 0.00 0.00 0.00
0.01 0.02 0.05 0.06 0.09 0.10 0.08 0.07 0.06 0.07 0.08 0.02 0.01 0.03 0.06 0.06 0.09 0.11 0.10 0.13 0.08 0.04 0.09 0.14 0.11 0.05 0.01 0.01 0.00 0.00 0.01 0.02 0.05 0.11 0.12 0.03 0.00 0.00 0.00 0.00 0.00 0.00 0.00 0.00
0.00 0.01 0.03 0.04 0.09 0.10 0.08 0.04 0.05 0.07 0.08 0.02 0.01 0.01 0.00 0.01 0.02 0.05 0.11 0.26 0.17 0.10 0.05 0.04 0.03 0.11 0.10 0.03 0.01 0.00 0.00 0.01 0.01 0.02 0.01 0.00 0.00 0.00 0.00 0.00 0.00 0.00 0.00 0.00
0.03 0.00 0.01 0.03 0.05 0.08 0.06 0.02 0.05 0.08 0.11 0.06 0.01 0.00 0.00 0.00 0.01 0.01 0.06 0.06 0.12 0.24 0.21 0.11 0.07 0.04 0.02 0.05 0.03 0.01 0.01 0.00 0.01 0.01 0.00 0.00 0.00 0.00 0.00 0.00 0.00 0.00 0.00 0.00
0.02 0.00 0.00 0.01 0.04 0.08 0.05 0.02 0.02 0.04 0.11 0.07 0.00 0.00 0.00 0.00 0.00 0.00 0.00 0.00 0.01 0.09 0.22 0.26 0.12 0.04 0.01 0.00 0.01 0.01 0.01 0.00 0.00 0.00 0.00 0.00 0.00 0.00 0.00 0.00 0.00 0.00 0.00 0.00
0.01 0.00 0.00 0.00 0.02 0.09 0.06 0.02 0.01 0.01 0.11 0.15 0.05 0.00 0.00 0.00 0.00 0.00 0.00 0.01 0.02 0.19 0.17 0.11 0.06 0.02 0.01 0.00 0.00 0.00 0.00 0.00 0.00 0.01 0.00 0.00 0.00 0.00 0.00 0.00 0.00 0.00 0.00 0.00
0.00 0.01 0.03 0.02 0.02 0.05 0.05 0.03 0.00 0.00 0.06 0.08 0.02 0.00 0.00 0.00 0.00 0.00 0.01 0.03 0.11 0.28 0.24 0.12 0.03 0.00 0.01 0.02 0.01 0.00 0.00 0.00 0.01 0.02 0.01 0.00 0.00 0.00 0.00 0.00 0.00 0.00 0.00 0.00
0.00 0.01 0.06 0.07 0.07 0.03 0.01 0.02 0.11 0.07 0.12 0.31 0.11 0.02 0.00 0.00 0.01 0.01 0.03 0.09 0.17 0.26 0.34 0.22 0.04 0.00 0.01 0.01 0.00 0.00 0.00 0.00 0.01 0.02 0.00 0.00 0.00 0.00 0.00 0.00 0.00 0.00 0.00 0.00
0.01 0.01 0.07 0.09 0.10 0.07 0.02 0.04 0.17 0.24 0.17 0.21 0.20 0.02 0.01 0.04 0.08 0.14 0.17 0.23 0.25 0.28 0.24 0.18 0.11 0.09 0.05 0.02 0.00 0.00 0.00 0.00 0.00 0.00 0.00 0.00 0.00 0.00 0.00 0.00 0.00 0.00 0.00 0.00
0.02 0.06 0.17 0.17 0.11 0.05 0.01 0.02 0.13 0.13 0.13 0.17 0.03 0.02 0.09 0.24 0.29 0.29 0.28 0.23 0.23 0.16 0.10 0.06 0.10 0.16 0.10 0.01 0.00 0.00 0.00 0.00 0.00 0.00 0.00 0.00 0.00 0.00 0.00 0.00 0.00 0.00 0.00 0.00
0.16 0.41 0.44 0.16 0.02 0.02 0.02 0.19 0.50 0.27 0.12 0.07 0.07 0.09 0.16 0.31 0.30 0.24 0.16 0.09 0.08 0.07 0.02 0.03 0.07 0.04 0.01 0.00 0.00 0.00 0.00 0.00 0.00 0.00 0.00 0.00 0.00 0.00 0.00 0.00 0.00 0.00 0.00 0.00
0.35 0.37 0.12 0.02 0.02 0.07 0.07 0.21 0.37 0.28 0.14 0.01 0.01 0.10 0.17 0.21 0.14 0.08 0.05 0.04 0.02 0.03 0.01 0.04 0.02 0.00 0.00 0.00 0.00 0.00 0.00 0.00 0.00 0.00 0.00 0.00 0.00 0.00 0.00 0.00 0.00 0.00 0.00 0.00
0.06 0.05 0.06 0.04 0.04 0.06 0.10 0.03 0.05 0.05 0.02 0.00 0.01 0.08 0.14 0.09 0.10 0.09 0.02 0.01 0.00 0.00 0.00 0.02 0.00 0.00 0.00 0.00 0.00 0.00 0.00 0.00 0.00 0.00 0.00 0.00 0.00 0.00 0.00 0.00 0.00 0.00 0.00 0.00
0.04 0.07 0.04 0.02 0.02 0.04 0.01 0.00 0.00 0.00 0.00 0.00 0.00 0.04 0.03 0.01 0.03 0.03 0.01 0.00 0.00 0.00 0.00 0.00 0.00 0.00 0.00 0.00 0.00 0.00 0.00 0.00 0.00 0.00 0.00 0.00 0.00 0.00 0.00 0.00 0.00 0.00 0.00 0.00
0.06 0.05 0.01 0.03 0.01 0.00 0.00 0.00 0.00 0.00 0.00 0.00 0.00 0.00 0.00 0.00 0.00 0.00 0.00 0.00 0.00 0.00 0.00 0.00 0.00 0.00 0.00 0.00 0.00 0.00 0.00 0.00 0.00 0.00 0.00 0.00 0.00 0.00 0.00 0.00 0.00 0.00 0.00 0.00
0.02 0.02 0.01 0.00 0.00 0.00 0.00 0.00 0.00 0.00 0.00 0.00 0.00 0.00 0.00 0.00 0.00 0.00 0.00 0.00 0.00 0.00 0.00 0.00 0.00 0.00 0.00 0.00 0.00 0.00 0.00 0.00 0.00 0.00 0.00 0.00 0.00 0.00 0.00 0.00 0.00 0.00 0.00 0.00
0.01 0.00 0.00 0.00 0.00 0.00 0.00 0.00 0.00 0.00 0.00 0.00 0.00 0.00 0.00 0.00 0.00 0.00 0.00 0.00 0.00 0.00 0.00 0.00 0.00 0.00 0.00 0.00 0.00 0.00 0.00 0.00 0.00 0.00 0.00 0.00 0.00 0.00 0.00 0.00 0.00 0.00 0.00 0.00
0.00 0.00 0.00 0.00 0.00 0.00 0.00 0.00 0.00 0.00 0.00 0.00 0.00 0.00 0.00 0.00 0.00 0.00 0.00 0.00 0.00 0.00 0.00 0.00 0.00 0.00 0.00 0.00 0.00 0.00 0.00 0.00 0.00 0.00 0.00 0.00 0.00 0.00 0.00 0.00 0.00 0.00 0.00 0.00